When you browse on this site, cookies collect data to enhance your experience and personalize the content and advertising you see.
Visit our Privacy Policy to learn more. By continuing to use the site, you agree to this use of cookies and data.
  • In Czech Republic
  • List of Countries
  • For 7 days
  • Water Temperature
  • Satellite Maps
  • Weather Map
  • Weather Widgets
  • user-avatar
    Login

    Hourly Weather Baranain

    Today, 21 January, Monday

    Time Temperature Precipitation Wind Pressure Humidity
    00:00 +5°C° 0 mm 2 mps 724 mmHg 93%
    01:00 +5°C° 0.1 mm 2 mps 724 mmHg 93%
    02:00 +4°C° 0.1 mm 2 mps 724 mmHg 94%
    03:00 +4°C° 0.1 mm 2 mps 724 mmHg 94%
    04:00 +3°C° 0.1 mm 3 mps 724 mmHg 93%
    05:00 +4°C° 0.1 mm 3 mps 725 mmHg 91%
    06:00 +4°C° 0 mm 4 mps 725 mmHg 91%
    07:00 +4°C° 0.1 mm 4 mps 725 mmHg 89%
    08:00 +3°C° 0.1 mm 5 mps 725 mmHg 87%
    09:00 +3°C° 0.1 mm 5 mps 725 mmHg 85%
    10:00 +3°C° 0.1 mm 5 mps 726 mmHg 82%
    11:00 +3°C° 0.1 mm 5 mps 726 mmHg 79%
    12:00 +4°C° 0 mm 6 mps 726 mmHg 74%
    13:00 +4°C° 0 mm 6 mps 726 mmHg 75%
    14:00 +3°C° 0 mm 6 mps 726 mmHg 76%
    15:00 +3°C° 0 mm 5 mps 726 mmHg 77%
    16:00 +2°C° 0 mm 5 mps 726 mmHg 80%
    17:00 +3°C° 0 mm 4 mps 726 mmHg 83%
    18:00 +2°C° 0 mm 3 mps 726 mmHg 86%
    19:00 +2°C° 0 mm 3 mps 726 mmHg 85%
    20:00 +2°C° 0 mm 3 mps 727 mmHg 85%
    21:00 +2°C° 0 mm 3 mps 727 mmHg 85%
    22:00 +2°C° 0 mm 3 mps 726 mmHg 87%
    23:00 +2°C° 0 mm 3 mps 726 mmHg 89%

    Tomorrow, 22 January, Tuesday

    Time Temperature Precipitation Wind Pressure Humidity
    00:00 +3°C° 0 mm 2 mps 726 mmHg 91%
    01:00 +2°C° 0 mm 2 mps 725 mmHg 92%
    02:00 +2°C° 0 mm 2 mps 725 mmHg 94%
    03:00 +2°C° 0 mm 2 mps 725 mmHg 95%
    04:00 +2°C° 0 mm 2 mps 724 mmHg 95%
    05:00 +3°C° 0 mm 1 mps 723 mmHg 94%
    06:00 +3°C° 0 mm 1 mps 723 mmHg 94%
    07:00 +3°C° 0.2 mm 1 mps 722 mmHg 92%
    08:00 +4°C° 0.2 mm 1 mps 722 mmHg 91%
    09:00 +4°C° 0.2 mm 1 mps 721 mmHg 89%
    10:00 +4°C° 0.3 mm 2 mps 721 mmHg 85%
    11:00 +5°C° 0.3 mm 2 mps 720 mmHg 81%
    12:00 +5°C° 0.3 mm 3 mps 720 mmHg 77%
    13:00 +5°C° 0.6 mm 4 mps 720 mmHg 80%
    14:00 +4°C° 0.6 mm 4 mps 719 mmHg 83%
    15:00 +3°C° 0.6 mm 5 mps 719 mmHg 86%
    16:00 +4°C° 0.3 mm 4 mps 719 mmHg 88%
    17:00 +3°C° 0.3 mm 3 mps 719 mmHg 90%
    18:00 +4°C° 0.3 mm 2 mps 719 mmHg 92%
    19:00 +4°C° 0.9 mm 2 mps 719 mmHg 92%
    20:00 +4°C° 0.9 mm 2 mps 719 mmHg 92%
    21:00 +4°C° 0.9 mm 2 mps 718 mmHg 92%
    22:00 +4°C° 1.5 mm 2 mps 718 mmHg 93%
    23:00 +4°C° 1.5 mm 2 mps 718 mmHg 93%

    Day after tomorrow, 23 January, Wednesday

    Time Temperature Precipitation Wind Pressure Humidity
    00:00 +4°C° 1.5 mm 2 mps 718 mmHg 94%
    01:00 +4°C° 1.5 mm 2 mps 717 mmHg 94%
    02:00 +4°C° 1.5 mm 2 mps 716 mmHg 94%
    03:00 +5°C° 1.5 mm 1 mps 716 mmHg 94%
    04:00 +4°C° 3.1 mm 2 mps 714 mmHg 93%
    05:00 +3°C° 3.1 mm 3 mps 713 mmHg 92%
    06:00 +4°C° 3.1 mm 3 mps 712 mmHg 91%
    07:00 +3°C° 2.4 mm 5 mps 713 mmHg 91%
    08:00 +4°C° 2.4 mm 6 mps 713 mmHg 91%
    09:00 +4°C° 2.4 mm 8 mps 714 mmHg 92%
    10:00 +4°C° 1.9 mm 7 mps 714 mmHg 92%
    11:00 +4°C° 1.9 mm 6 mps 715 mmHg 93%
    12:00 +3°C° 1.9 mm 5 mps 715 mmHg 93%
    13:00 +3°C° 1.5 mm 5 mps 715 mmHg 92%
    14:00 +3°C° 1.5 mm 5 mps 715 mmHg 91%
    15:00 +3°C° 1.5 mm 6 mps 715 mmHg 90%
    16:00 +3°C° 2.3 mm 6 mps 715 mmHg 91%
    17:00 +3°C° 2.3 mm 7 mps 715 mmHg 91%
    18:00 +2°C° 2.3 mm 8 mps 716 mmHg 91%
    19:00 +2°C° 1.2 mm 8 mps 716 mmHg 90%
    20:00 +1°C° 1.2 mm 8 mps 717 mmHg 89%
    21:00 +2°C° 1.2 mm 7 mps 718 mmHg 88%
    22:00 0°C° 0.6 mm 7 mps 718 mmHg 88%
    23:00 +1°C° 0.6 mm 6 mps 719 mmHg 89%

    24 January, Thursday

    Time Temperature Precipitation Wind Pressure Humidity
    00:00 +1°C° 0.6 mm 5 mps 719 mmHg 89%
    01:00 0°C° 0.2 mm 5 mps 720 mmHg 89%
    02:00 0°C° 0.2 mm 5 mps 720 mmHg 89%
    03:00 -1°C° 0.2 mm 4 mps 720 mmHg 89%
    04:00 -1°C° 0.1 mm 4 mps 721 mmHg 88%
    05:00 -2°C° 0.1 mm 4 mps 721 mmHg 88%
    06:00 -2°C° 0.1 mm 4 mps 722 mmHg 88%
    07:00 -2°C° 0 mm 4 mps 722 mmHg 86%
    08:00 -2°C° 0 mm 4 mps 723 mmHg 85%
    09:00 -1°C° 0 mm 4 mps 724 mmHg 83%
    10:00 -1°C° 0 mm 5 mps 724 mmHg 81%
    11:00 -1°C° 0 mm 6 mps 724 mmHg 78%
    12:00 0°C° 0 mm 7 mps 724 mmHg 76%
    13:00 0°C° 0 mm 7 mps 724 mmHg 76%
    14:00 0°C° 0 mm 7 mps 724 mmHg 75%
    15:00 0°C° 0 mm 7 mps 724 mmHg 75%
    16:00 -1°C° 0 mm 6 mps 724 mmHg 78%
    17:00 -1°C° 0 mm 5 mps 725 mmHg 81%
    18:00 -2°C° 0 mm 4 mps 725 mmHg 84%
    19:00 -2°C° 0 mm 4 mps 725 mmHg 85%
    20:00 -1°C° 0 mm 3 mps 726 mmHg 85%
    21:00 -1°C° 0 mm 3 mps 726 mmHg 86%
    22:00 -1°C° 0 mm 3 mps 726 mmHg 86%
    23:00 -1°C° 0 mm 3 mps 726 mmHg 87%

    25 January, Friday

    Time Temperature Precipitation Wind Pressure Humidity
    00:00 -1°C° 0 mm 3 mps 726 mmHg 87%
    01:00 -1°C° 0 mm 2 mps 726 mmHg 87%
    02:00 -1°C° 0 mm 2 mps 725 mmHg 87%
    03:00 +1°C° 0 mm 2 mps 725 mmHg 86%
    04:00 +2°C° 0 mm 2 mps 725 mmHg 88%
    05:00 +2°C° 0 mm 2 mps 725 mmHg 90%
    06:00 +3°C° 0 mm 2 mps 725 mmHg 91%
    07:00 +4°C° 0.1 mm 2 mps 725 mmHg 93%
    08:00 +4°C° 0.1 mm 2 mps 726 mmHg 94%
    09:00 +4°C° 0.1 mm 3 mps 726 mmHg 95%
    10:00 +5°C° 0.1 mm 3 mps 726 mmHg 95%
    11:00 +7°C° 0.1 mm 3 mps 727 mmHg 95%
    12:00 +6°C° 0.1 mm 4 mps 727 mmHg 94%
    13:00 +6°C° 0.1 mm 4 mps 727 mmHg 94%
    14:00 +6°C° 0.1 mm 4 mps 726 mmHg 94%
    15:00 +6°C° 0.1 mm 4 mps 726 mmHg 94%
    16:00 +6°C° 0 mm 4 mps 727 mmHg 95%
    17:00 +5°C° 0 mm 3 mps 727 mmHg 95%
    18:00 +5°C° 0 mm 3 mps 727 mmHg 95%
    19:00 +4°C° 0 mm 3 mps 727 mmHg 96%
    20:00 +4°C° 0 mm 3 mps 727 mmHg 97%
    21:00 +5°C° 0 mm 2 mps 728 mmHg 97%
    22:00 +5°C° 0 mm 2 mps 727 mmHg 97%
    23:00 +4°C° 0 mm 2 mps 727 mmHg 97%

    26 January, Saturday

    Time Temperature Precipitation Wind Pressure Humidity
    00:00 +4°C° 0 mm 2 mps 727 mmHg 98%
    01:00 +4°C° 0 mm 2 mps 727 mmHg 98%
    02:00 +4°C° 0 mm 2 mps 727 mmHg 98%
    03:00 +4°C° 0 mm 2 mps 726 mmHg 98%
    04:00 +4°C° 0 mm 2 mps 726 mmHg 98%
    05:00 +4°C° 0 mm 2 mps 726 mmHg 98%
    06:00 +4°C° 0 mm 2 mps 725 mmHg 97%
    07:00 +5°C° 0 mm 1 mps 725 mmHg 96%
    08:00 +5°C° 0 mm 1 mps 725 mmHg 96%
    09:00 +5°C° 0 mm 1 mps 725 mmHg 95%
    10:00 +7°C° 0 mm 1 mps 725 mmHg 90%
    11:00 +8°C° 0 mm 1 mps 724 mmHg 85%
    12:00 +10°C° 0 mm 1 mps 724 mmHg 79%
    13:00 +9°C° 0 mm 2 mps 724 mmHg 80%
    14:00 +9°C° 0 mm 2 mps 723 mmHg 80%
    15:00 +9°C° 0 mm 2 mps 723 mmHg 80%
    16:00 +7°C° 0 mm 2 mps 723 mmHg 84%
    17:00 +6°C° 0 mm 2 mps 722 mmHg 88%
    18:00 +6°C° 0 mm 1 mps 722 mmHg 92%
    19:00 +6°C° 0.2 mm 1 mps 723 mmHg 92%
    20:00 +6°C° 0.2 mm 1 mps 723 mmHg 92%
    21:00 +7°C° 0.2 mm 1 mps 723 mmHg 92%
    22:00 +4°C° 0.3 mm 3 mps 724 mmHg 91%
    23:00 +4°C° 0.3 mm 4 mps 724 mmHg 90%
    Show more